Flag for U.S.A. Weather past 2 weeks in Des Moines, Iowa, U.S.A.

Now
34 °F

Fog.


Feels Like: 27 °F
Forecast: 31 / 37 °F
Wind: 8 mph from South

Location: Des Moines International Airport

Current Time: Dec 20, 2014 at 12:49:51 PM

Latest Report: Dec 20, 2014 at 11:54 AM


Visibility: 4 mi

Pressure: 30.19 "Hg

Humidity: 88%

Dew point: 31 °F

Location of Des MoinesLocation

Historic Weather in Des Moines — Graph

°F

Des Moines temperature yesterday

Maximum temperature yesterday: 33 °F (at 12:54 PM)
Minimum temperature yesterday: 28 °F (at 12:04 AM)
Average temperature yesterday: 31 °F

Past Weeks' High & Low Weather Summary

 TemperatureHumidityPressure
High57 °F (Dec 13, 2:54 PM)93% (Dec 8, 12:54 AM)30.61 "Hg (Dec 8, 12:54 AM)
Low15 °F (Dec 17, 4:54 AM)45% (Dec 6, 2:54 PM)29.55 "Hg (Dec 15, 1:54 PM)
Average36 °F79%30.23 "Hg
* Reported Dec 5 10:54 AM — Dec 20 10:54 AM, Des Moines, Weather by CustomWeather, © 2014

Note: Actual official high and low records may vary slightly from our data, if they occured in-between our weather recording intervals... More about our weather records

Advertising

Des Moines weather history for previous 24 hours

 ConditionsComfort  
Time TempWeatherWind HumidityBarometerVisibility
10:54 AM
Dec 20
34 °FFog.6 mph85%30.21 "Hg5 mi
9:54 AM33 °FFog.6 mph85%30.20 "Hg5 mi
8:54 AM32 °FIce fog.5 mph88%30.20 "Hg5 mi
7:54 AM32 °FOvercast.5 mph85%30.21 "Hg7 mi
6:54 AM32 °FMostly cloudy.3 mph85%30.20 "Hg8 mi
5:54 AM32 °FLight snow. Mostly cloudy.6 mph85%30.19 "Hg7 mi
4:54 AM32 °FLight freezing rain. Ice fog.5 mph92%30.19 "Hg3 mi
3:54 AM32 °FLight snow. Ice fog.8 mph88%30.21 "Hg4 mi
2:54 AM33 °FLight snow. Fog.6 mph88%30.21 "Hg4 mi
1:54 AM32 °FLight snow. Ice fog.5 mph92%30.21 "Hg4 mi
12:54 AM32 °FLight snow. Ice fog.6 mph92%30.21 "Hg4 mi
11:54 PM
Dec 19
32 °FLight snow. Ice fog.5 mph92%30.22 "Hg6 mi
10:54 PM32 °FLight freezing rain. Ice fog.6 mph92%30.22 "Hg4 mi
9:54 PM32 °FLight freezing rain. Ice fog.8 mph88%30.22 "Hg4 mi
8:54 PM32 °FIce fog.9 mph88%30.23 "Hg5 mi
7:54 PM32 °FIce fog.9 mph85%30.23 "Hg6 mi
6:54 PM33 °FLow clouds.7 mph82%30.23 "Hg6 mi
5:54 PM33 °FOvercast.6 mph82%30.24 "Hg7 mi
4:54 PM33 °FOvercast.6 mph82%30.24 "Hg7 mi
3:54 PM33 °FOvercast.8 mph82%30.25 "Hg7 mi
2:54 PM33 °FOvercast.7 mph78%30.25 "Hg8 mi
1:54 PM33 °FMostly cloudy.9 mph78%30.26 "Hg7 mi
12:54 PM33 °FMore clouds than sun.8 mph78%30.26 "Hg7 mi
Weather by CustomWeather, © 2014

See weather overviewHow to use our weather pages